N23KQ KTVL-KR33

Flight info

Callsign N23KQ
Flight time N/A
Altitude 25000
Route COLOM V332 RBL V23 ZUNAS T263 TALEM V23 OED V287 OTH V182 JANAS
Aircraft K100/L-SBDGRY/S

Departure

Time 2026-04-20 18:08
Airport Lake Tahoe Airport (KTVL)

Arrival

Time N/A
Airport KR33
Time Latitude Longitude Altitude Speed Heading
2026-04-20 17:51 38.89428 -119.99686 6266 ft 0 kts 284°
2026-04-20 17:54 38.89428 -119.99685 6266 ft 0 kts 284°
2026-04-20 17:59 38.89428 -119.99684 6266 ft 0 kts 283°
2026-04-20 17:59 38.89427 -119.99684 6266 ft 0 kts 283°
2026-04-20 18:03 38.89430 -119.99689 6266 ft 6 kts 314°
2026-04-20 18:04 38.89498 -119.99655 6266 ft 5 kts 69°
2026-04-20 18:04 38.89498 -119.99654 6266 ft 0 kts 72°
2026-04-20 18:06 38.89499 -119.99649 6265 ft 3 kts 84°
2026-04-20 18:06 38.89553 -119.99592 6264 ft 18 kts 16°
2026-04-20 18:06 38.89734 -119.99537 6265 ft 36 kts 13°
2026-04-20 18:06 38.89996 -119.99463 6268 ft 37 kts 13°
2026-04-20 18:07 38.90266 -119.99377 6265 ft 43 kts 15°
2026-04-20 18:07 38.90446 -119.99299 6261 ft 17 kts 80°
2026-04-20 18:07 38.90395 -119.99241 6261 ft 0 kts 191°
2026-04-20 18:07 38.90277 -119.99276 6264 ft 47 kts 192°
2026-04-20 18:08 38.89791 -119.99425 6347 ft 85 kts 193°
2026-04-20 18:08 38.89192 -119.99621 6637 ft 92 kts 194°
2026-04-20 18:08 38.88499 -119.99822 6865 ft 110 kts 192°
2026-04-20 18:08 38.87745 -120.00027 7360 ft 106 kts 193°
2026-04-20 18:09 38.87025 -120.00203 7606 ft 105 kts 193°
2026-04-20 18:09 38.86339 -120.00357 8031 ft 98 kts 190°
2026-04-20 18:09 38.85631 -120.00544 8352 ft 104 kts 193°
2026-04-20 18:09 38.84940 -120.00765 8749 ft 100 kts 194°
2026-04-20 18:10 38.84257 -120.00990 9027 ft 105 kts 194°
2026-04-20 18:10 38.83541 -120.01197 9222 ft 110 kts 192°
2026-04-20 18:10 38.82773 -120.01411 9483 ft 112 kts 194°
2026-04-20 18:10 38.82141 -120.01967 9881 ft 113 kts 222°
2026-04-20 18:11 38.81764 -120.02880 10210 ft 124 kts 243°
2026-04-20 18:11 38.81737 -120.04051 10547 ft 136 kts 260°
2026-04-20 18:11 38.81778 -120.05265 10772 ft 137 kts 258°
2026-04-20 18:11 38.81811 -120.06481 11093 ft 135 kts 257°
2026-04-20 18:12 38.81842 -120.07681 11400 ft 135 kts 257°
2026-04-20 18:12 38.81870 -120.08882 11757 ft 135 kts 258°
2026-04-20 18:12 38.81910 -120.10082 12165 ft 136 kts 258°
2026-04-20 18:12 38.81946 -120.11303 12585 ft 137 kts 259°
2026-04-20 18:13 38.81977 -120.12518 12922 ft 139 kts 256°
2026-04-20 18:13 38.82018 -120.13747 13307 ft 137 kts 257°
2026-04-20 18:13 38.82053 -120.14963 13647 ft 136 kts 256°
2026-04-20 18:13 38.82085 -120.16180 13911 ft 137 kts 257°
2026-04-20 18:14 38.82122 -120.17404 14137 ft 137 kts 256°
2026-04-20 18:14 38.82155 -120.18619 14354 ft 136 kts 256°
2026-04-20 18:14 38.82191 -120.19834 14559 ft 136 kts 256°
2026-04-20 18:14 38.82227 -120.21050 14727 ft 136 kts 256°
2026-04-20 18:15 38.82258 -120.22267 14944 ft 136 kts 256°
2026-04-20 18:15 38.82291 -120.23483 15117 ft 137 kts 256°
2026-04-20 18:15 38.82325 -120.24700 15260 ft 137 kts 256°
2026-04-20 18:15 38.82359 -120.25917 15428 ft 136 kts 256°
2026-04-20 18:16 38.82393 -120.27133 15588 ft 136 kts 255°
2026-04-20 18:16 38.82427 -120.28348 15763 ft 136 kts 255°
2026-04-20 18:16 38.82462 -120.29567 15923 ft 137 kts 255°
2026-04-20 18:16 38.82493 -120.30769 16122 ft 136 kts 255°
2026-04-20 18:17 38.82526 -120.31986 16341 ft 137 kts 255°
2026-04-20 18:17 38.82561 -120.33205 16532 ft 136 kts 255°
2026-04-20 18:17 38.82595 -120.34420 16689 ft 136 kts 255°
2026-04-20 18:17 38.82627 -120.35635 16810 ft 137 kts 255°
2026-04-20 18:18 38.82662 -120.36851 16951 ft 136 kts 254°
2026-04-20 18:18 38.82693 -120.38067 17115 ft 136 kts 254°
2026-04-20 18:18 38.82724 -120.39282 17262 ft 136 kts 254°
2026-04-20 18:18 38.82756 -120.40498 17403 ft 138 kts 254°
2026-04-20 18:19 38.82789 -120.41736 17522 ft 139 kts 254°
2026-04-20 18:19 38.82824 -120.42972 17653 ft 139 kts 254°
2026-04-20 18:19 38.82854 -120.44199 17720 ft 140 kts 254°
2026-04-20 18:19 38.82888 -120.45444 17813 ft 139 kts 254°
2026-04-20 18:20 38.82921 -120.46684 17940 ft 139 kts 254°
2026-04-20 18:20 38.82952 -120.47927 18035 ft 140 kts 254°
2026-04-20 18:20 38.82985 -120.49169 18156 ft 139 kts 254°
2026-04-20 18:20 38.83017 -120.50406 18298 ft 139 kts 254°
2026-04-20 18:21 38.83048 -120.51643 18422 ft 139 kts 254°
2026-04-20 18:21 38.83080 -120.52879 18504 ft 138 kts 254°
2026-04-20 18:21 38.83111 -120.54102 18573 ft 137 kts 253°
2026-04-20 18:21 38.83139 -120.55326 18719 ft 138 kts 254°
2026-04-20 18:22 38.83172 -120.56540 18817 ft 138 kts 254°
2026-04-20 18:22 38.83203 -120.57771 18916 ft 138 kts 254°
2026-04-20 18:22 38.83234 -120.59000 19004 ft 138 kts 254°
2026-04-20 18:22 38.83265 -120.60226 19074 ft 137 kts 253°
2026-04-20 18:23 38.83293 -120.61453 19143 ft 138 kts 253°
2026-04-20 18:23 38.83325 -120.62680 19220 ft 138 kts 254°
2026-04-20 18:23 38.83356 -120.63910 19303 ft 137 kts 254°
2026-04-20 18:23 38.83388 -120.65126 19476 ft 133 kts 253°
2026-04-20 18:24 38.83415 -120.66279 19647 ft 130 kts 252°
2026-04-20 18:24 38.83439 -120.67440 19760 ft 130 kts 253°
2026-04-20 18:24 38.83467 -120.68603 19900 ft 130 kts 253°
2026-04-20 18:24 38.83495 -120.69767 19975 ft 130 kts 253°
2026-04-20 18:25 38.83523 -120.70928 20084 ft 130 kts 253°
2026-04-20 18:25 38.83551 -120.72087 20193 ft 130 kts 253°
2026-04-20 18:25 38.83578 -120.73245 20297 ft 130 kts 253°
2026-04-20 18:25 38.83608 -120.74403 20409 ft 130 kts 253°
2026-04-20 18:26 38.83634 -120.75559 20500 ft 130 kts 253°
2026-04-20 18:26 38.83660 -120.76715 20608 ft 129 kts 253°
2026-04-20 18:26 38.83688 -120.77871 20719 ft 129 kts 253°
2026-04-20 18:26 38.83715 -120.79023 20808 ft 129 kts 253°
2026-04-20 18:27 38.83742 -120.80163 20894 ft 129 kts 253°
2026-04-20 18:27 38.83769 -120.81317 20983 ft 129 kts 253°
2026-04-20 18:27 38.83795 -120.82471 21061 ft 129 kts 253°
2026-04-20 18:27 38.83821 -120.83621 21167 ft 129 kts 253°
2026-04-20 18:28 38.83854 -120.84775 21250 ft 131 kts 256°
2026-04-20 18:28 38.84040 -120.85971 21339 ft 142 kts 268°
2026-04-20 18:28 38.84462 -120.87179 21403 ft 155 kts 280°
2026-04-20 18:28 38.85154 -120.88322 21485 ft 171 kts 296°
2026-04-20 18:29 38.86095 -120.89331 21555 ft 178 kts 302°
2026-04-20 18:29 38.87049 -120.90331 21625 ft 177 kts 301°
2026-04-20 18:29 38.87993 -120.91339 21702 ft 177 kts 301°
2026-04-20 18:29 38.88940 -120.92343 21787 ft 177 kts 301°
2026-04-20 18:30 38.89888 -120.93347 21866 ft 177 kts 301°
2026-04-20 18:30 38.90823 -120.94339 21936 ft 176 kts 301°
2026-04-20 18:30 38.91769 -120.95344 21984 ft 177 kts 302°
2026-04-20 18:30 38.92722 -120.96350 22021 ft 178 kts 302°
2026-04-20 18:31 38.93661 -120.97366 22035 ft 178 kts 300°
2026-04-20 18:31 38.94630 -120.98395 22032 ft 183 kts 302°
2026-04-20 18:31 38.95613 -120.99431 22035 ft 182 kts 301°
2026-04-20 18:31 38.96600 -121.00480 22037 ft 185 kts 302°
2026-04-20 18:32 38.97595 -121.01527 22039 ft 185 kts 302°
2026-04-20 18:32 38.98590 -121.02587 22036 ft 186 kts 301°
2026-04-20 18:32 38.99583 -121.03645 22036 ft 185 kts 301°
2026-04-20 18:32 39.00574 -121.04702 22037 ft 185 kts 301°
2026-04-20 18:33 39.01566 -121.05762 22034 ft 186 kts 302°
2026-04-20 18:33 39.02566 -121.06827 22033 ft 186 kts 302°
2026-04-20 18:33 39.03564 -121.07886 22055 ft 185 kts 301°
2026-04-20 18:33 39.04547 -121.08942 22036 ft 187 kts 301°
2026-04-20 18:34 39.05548 -121.10012 22035 ft 186 kts 301°
2026-04-20 18:34 39.06551 -121.11083 22030 ft 188 kts 302°
2026-04-20 18:34 39.07561 -121.12158 22032 ft 189 kts 302°
2026-04-20 18:34 39.08572 -121.13236 22028 ft 189 kts 302°
2026-04-20 18:35 39.09582 -121.14314 22027 ft 188 kts 301°
2026-04-20 18:35 39.10587 -121.15392 22027 ft 188 kts 301°
2026-04-20 18:35 39.11594 -121.16470 22032 ft 188 kts 301°
2026-04-20 18:35 39.12606 -121.17553 22034 ft 189 kts 302°
2026-04-20 18:36 39.13617 -121.18631 22033 ft 188 kts 301°
2026-04-20 18:36 39.14624 -121.19711 22031 ft 189 kts 301°
2026-04-20 18:36 39.15635 -121.20794 22030 ft 189 kts 302°
2026-04-20 18:36 39.16643 -121.21874 22008 ft 189 kts 301°
2026-04-20 18:37 39.17641 -121.22945 22007 ft 189 kts 301°
2026-04-20 18:37 39.18654 -121.24032 22013 ft 190 kts 301°
2026-04-20 18:37 39.19672 -121.25125 22004 ft 191 kts 301°
2026-04-20 18:37 39.20699 -121.26227 22004 ft 191 kts 302°
2026-04-20 18:38 39.21721 -121.27323 22001 ft 191 kts 302°
2026-04-20 18:38 39.22741 -121.28416 21998 ft 190 kts 302°
2026-04-20 18:38 39.23752 -121.29503 22000 ft 189 kts 302°
2026-04-20 18:38 39.24759 -121.30588 22002 ft 189 kts 301°
2026-04-20 18:39 39.25759 -121.31667 22003 ft 190 kts 301°
2026-04-20 18:39 39.26776 -121.32756 22001 ft 190 kts 301°
2026-04-20 18:39 39.27793 -121.33851 22005 ft 191 kts 301°
2026-04-20 18:39 39.28815 -121.34952 22006 ft 192 kts 301°
2026-04-20 18:40 39.29839 -121.36055 22004 ft 192 kts 302°
2026-04-20 18:40 39.30867 -121.37158 22005 ft 192 kts 302°
2026-04-20 18:40 39.31894 -121.38259 22000 ft 191 kts 302°
2026-04-20 18:40 39.32909 -121.39355 22002 ft 190 kts 301°
2026-04-20 18:41 39.33923 -121.40457 22013 ft 191 kts 301°
2026-04-20 18:41 39.34943 -121.41560 22016 ft 191 kts 302°
2026-04-20 18:41 39.35968 -121.42664 22018 ft 192 kts 301°
2026-04-20 18:41 39.36991 -121.43768 22020 ft 192 kts 301°
2026-04-20 18:42 39.38014 -121.44873 22039 ft 192 kts 301°
2026-04-20 18:42 39.39040 -121.45981 22042 ft 192 kts 301°
2026-04-20 18:42 39.40063 -121.47087 22042 ft 192 kts 301°
2026-04-20 18:42 39.41084 -121.48191 22043 ft 191 kts 301°
2026-04-20 18:43 39.42096 -121.49286 22045 ft 192 kts 301°
2026-04-20 18:43 39.43118 -121.50392 22043 ft 191 kts 301°
2026-04-20 18:43 39.44140 -121.51498 22045 ft 191 kts 301°
2026-04-20 18:43 39.45160 -121.52605 22055 ft 193 kts 301°
2026-04-20 18:44 39.46189 -121.53720 22041 ft 193 kts 301°
2026-04-20 18:44 39.47217 -121.54834 22041 ft 192 kts 301°
2026-04-20 18:44 39.48243 -121.55947 22047 ft 192 kts 301°
2026-04-20 18:44 39.49265 -121.57055 22046 ft 191 kts 300°
2026-04-20 18:45 39.50285 -121.58163 22045 ft 191 kts 300°
2026-04-20 18:45 39.51302 -121.59269 22045 ft 191 kts 300°
2026-04-20 18:45 39.52318 -121.60372 22045 ft 190 kts 300°
2026-04-20 18:45 39.53333 -121.61477 22044 ft 191 kts 300°
2026-04-20 18:46 39.54348 -121.62577 22045 ft 190 kts 300°
2026-04-20 18:46 39.55361 -121.63681 22045 ft 190 kts 300°
2026-04-20 18:46 39.56376 -121.64787 22045 ft 191 kts 300°
2026-04-20 18:46 39.57392 -121.65892 22045 ft 191 kts 300°
2026-04-20 18:47 39.58401 -121.66990 22042 ft 191 kts 300°
2026-04-20 18:47 39.59416 -121.68095 22041 ft 191 kts 300°
2026-04-20 18:47 39.60433 -121.69203 22042 ft 191 kts 300°
2026-04-20 18:47 39.61449 -121.70311 22041 ft 191 kts 300°
2026-04-20 18:48 39.62467 -121.71421 22046 ft 191 kts 300°
2026-04-20 18:48 39.63483 -121.72531 22040 ft 191 kts 300°
2026-04-20 18:48 39.64503 -121.73644 22033 ft 191 kts 300°
2026-04-20 18:48 39.65519 -121.74754 22034 ft 191 kts 300°
2026-04-20 18:49 39.66539 -121.75868 22034 ft 191 kts 300°
2026-04-20 18:49 39.67558 -121.76981 22034 ft 191 kts 300°
2026-04-20 18:49 39.68232 -121.77717 22034 ft 191 kts 300°
2026-04-20 18:49 39.69581 -121.79192 22034 ft 191 kts 300°
2026-04-20 18:50 39.70602 -121.80307 22044 ft 193 kts 299°
2026-04-20 18:50 39.71627 -121.81430 22035 ft 192 kts 299°
2026-04-20 18:50 39.72648 -121.82553 22035 ft 192 kts 299°
2026-04-20 18:50 39.73338 -121.83310 22036 ft 192 kts 299°
2026-04-20 18:51 39.74357 -121.84427 22036 ft 192 kts 299°
2026-04-20 18:51 39.75378 -121.85545 22035 ft 192 kts 299°
2026-04-20 18:51 39.76384 -121.86649 22035 ft 192 kts 299°
2026-04-20 18:51 39.77405 -121.87769 22032 ft 192 kts 299°
2026-04-20 18:52 39.78426 -121.88888 22033 ft 192 kts 299°
2026-04-20 18:52 39.79447 -121.90007 22033 ft 192 kts 299°
2026-04-20 18:52 39.80465 -121.91126 22027 ft 191 kts 299°
2026-04-20 18:52 39.81483 -121.92243 22027 ft 191 kts 299°
2026-04-20 18:53 39.82498 -121.93359 22026 ft 191 kts 299°
2026-04-20 18:53 39.83517 -121.94480 22026 ft 191 kts 299°
2026-04-20 18:53 39.84532 -121.95596 22027 ft 191 kts 299°
2026-04-20 18:53 39.85549 -121.96716 22030 ft 191 kts 299°
2026-04-20 18:54 39.86565 -121.97834 22027 ft 191 kts 299°
2026-04-20 18:54 39.87568 -121.98938 22027 ft 191 kts 299°
2026-04-20 18:54 39.88583 -122.00057 22028 ft 191 kts 299°
2026-04-20 18:54 39.89601 -122.01179 22027 ft 191 kts 299°
2026-04-20 18:55 39.90617 -122.02299 22030 ft 191 kts 299°
2026-04-20 18:55 39.91633 -122.03421 22023 ft 192 kts 299°
2026-04-20 18:55 39.92650 -122.04542 22023 ft 192 kts 299°
2026-04-20 18:55 39.93668 -122.05665 22023 ft 192 kts 299°
2026-04-20 18:56 39.94686 -122.06790 22023 ft 192 kts 299°
2026-04-20 18:56 39.95707 -122.07916 22034 ft 193 kts 298°
2026-04-20 18:56 39.96732 -122.09050 22029 ft 193 kts 298°
2026-04-20 18:56 39.97744 -122.10170 22030 ft 193 kts 298°
2026-04-20 18:57 39.98766 -122.11301 22031 ft 192 kts 298°
2026-04-20 18:57 39.99786 -122.12430 22033 ft 192 kts 298°
2026-04-20 18:57 40.00807 -122.13561 22033 ft 192 kts 298°
2026-04-20 18:57 40.01825 -122.14689 22032 ft 192 kts 298°
2026-04-20 18:58 40.02845 -122.15819 22028 ft 192 kts 298°
2026-04-20 18:58 40.03867 -122.16952 22028 ft 192 kts 298°
2026-04-20 18:58 40.04887 -122.18082 22023 ft 192 kts 298°
2026-04-20 18:58 40.05905 -122.19212 22028 ft 192 kts 298°
2026-04-20 18:59 40.06925 -122.20343 22031 ft 192 kts 298°
2026-04-20 18:59 40.07943 -122.21474 22043 ft 192 kts 298°
2026-04-20 18:59 40.08960 -122.22604 22042 ft 192 kts 298°
2026-04-20 18:59 40.10093 -122.23636 22049 ft 209 kts 315°
2026-04-20 19:00 40.11513 -122.24319 22044 ft 222 kts 328°
2026-04-20 19:00 40.12986 -122.24906 22039 ft 221 kts 327°
2026-04-20 19:00 40.14454 -122.25517 22047 ft 221 kts 327°
2026-04-20 19:00 40.15899 -122.26119 22045 ft 221 kts 327°
2026-04-20 19:01 40.17363 -122.26725 22045 ft 221 kts 327°
2026-04-20 19:01 40.18833 -122.27332 22047 ft 221 kts 327°
2026-04-20 19:01 40.20300 -122.27940 22031 ft 221 kts 327°
2026-04-20 19:01 40.21772 -122.28550 22033 ft 222 kts 327°
2026-04-20 19:02 40.23238 -122.29158 22033 ft 221 kts 327°
2026-04-20 19:02 40.24706 -122.29766 22035 ft 221 kts 327°
2026-04-20 19:02 40.26169 -122.30375 22034 ft 221 kts 327°
2026-04-20 19:02 40.27632 -122.30982 22033 ft 221 kts 327°
2026-04-20 19:03 40.29098 -122.31591 22034 ft 221 kts 327°
2026-04-20 19:03 40.30546 -122.32193 22033 ft 220 kts 327°
2026-04-20 19:03 40.32010 -122.32802 22033 ft 220 kts 327°
2026-04-20 19:03 40.33472 -122.33410 22021 ft 220 kts 327°
2026-04-20 19:04 40.34934 -122.34019 22025 ft 220 kts 327°
2026-04-20 19:04 40.36396 -122.34628 22015 ft 220 kts 327°
2026-04-20 19:04 40.37853 -122.35235 22023 ft 220 kts 327°
2026-04-20 19:04 40.39325 -122.35852 22025 ft 223 kts 327°
2026-04-20 19:05 40.40808 -122.36467 22024 ft 223 kts 327°
2026-04-20 19:05 40.42288 -122.37082 22026 ft 223 kts 327°
2026-04-20 19:05 40.43767 -122.37699 22025 ft 223 kts 327°
2026-04-20 19:05 40.45249 -122.38318 22025 ft 223 kts 327°
2026-04-20 19:06 40.46706 -122.38927 22026 ft 223 kts 327°
2026-04-20 19:06 40.48189 -122.39547 22026 ft 223 kts 327°
2026-04-20 19:06 40.49665 -122.40164 22027 ft 223 kts 327°
2026-04-20 19:06 40.51142 -122.40784 22026 ft 223 kts 327°
2026-04-20 19:07 40.52623 -122.41404 22026 ft 224 kts 327°
2026-04-20 19:07 40.54106 -122.42025 22026 ft 224 kts 327°
2026-04-20 19:07 40.55596 -122.42648 22008 ft 225 kts 327°
2026-04-20 19:07 40.57083 -122.43271 22013 ft 224 kts 327°
2026-04-20 19:08 40.58562 -122.43895 22013 ft 223 kts 327°
2026-04-20 19:08 40.61505 -122.45127 22012 ft 221 kts 327°
2026-04-20 19:08 40.62969 -122.45735 22014 ft 219 kts 327°
2026-04-20 19:09 40.64424 -122.46354 22015 ft 220 kts 327°
2026-04-20 19:09 40.65886 -122.46974 22014 ft 221 kts 328°
2026-04-20 19:09 40.67357 -122.47587 22018 ft 221 kts 328°
2026-04-20 19:09 40.68803 -122.48192 22025 ft 221 kts 327°
2026-04-20 19:10 40.70267 -122.48817 22023 ft 221 kts 327°
2026-04-20 19:10 40.71735 -122.49436 22050 ft 222 kts 328°
2026-04-20 19:10 40.73218 -122.50051 22027 ft 223 kts 327°
2026-04-20 19:10 40.74704 -122.50674 22026 ft 222 kts 326°
2026-04-20 19:11 40.76180 -122.51308 22018 ft 223 kts 327°
2026-04-20 19:11 40.77650 -122.51918 22017 ft 218 kts 327°
2026-04-20 19:11 40.79096 -122.52518 22022 ft 219 kts 326°
2026-04-20 19:11 40.80549 -122.53152 22031 ft 222 kts 326°
2026-04-20 19:12 40.82021 -122.53782 22026 ft 222 kts 327°
2026-04-20 19:12 40.83493 -122.54392 22030 ft 223 kts 327°
2026-04-20 19:12 40.84952 -122.55029 22030 ft 221 kts 326°
2026-04-20 19:12 40.86431 -122.55645 22028 ft 224 kts 328°
2026-04-20 19:13 40.87889 -122.56237 22027 ft 222 kts 327°
2026-04-20 19:13 40.89363 -122.56865 22043 ft 222 kts 325°
2026-04-20 19:13 40.90844 -122.57503 22031 ft 225 kts 327°
2026-04-20 19:13 40.92347 -122.58140 22032 ft 227 kts 326°
2026-04-20 19:14 40.93850 -122.58790 22042 ft 228 kts 326°
2026-04-20 19:14 40.95369 -122.59433 22044 ft 230 kts 327°
2026-04-20 19:14 40.96891 -122.60066 22049 ft 229 kts 327°
2026-04-20 19:14 40.98415 -122.60709 22043 ft 229 kts 327°
2026-04-20 19:15 40.99922 -122.61357 22046 ft 225 kts 326°
2026-04-20 19:15 41.01404 -122.61998 22039 ft 223 kts 326°
2026-04-20 19:15 41.02878 -122.62616 22037 ft 225 kts 327°
2026-04-20 19:15 41.04370 -122.63253 22033 ft 225 kts 326°
2026-04-20 19:16 41.05867 -122.63900 22036 ft 228 kts 327°
2026-04-20 19:16 41.07393 -122.64535 22043 ft 232 kts 327°
2026-04-20 19:16 41.08929 -122.65186 22040 ft 231 kts 327°
2026-04-20 19:16 41.10445 -122.65819 22041 ft 227 kts 326°
2026-04-20 19:17 41.11955 -122.66490 22042 ft 229 kts 326°
2026-04-20 19:17 41.13487 -122.67148 22026 ft 229 kts 327°
2026-04-20 19:17 41.14993 -122.67775 22033 ft 226 kts 326°
2026-04-20 19:17 41.16495 -122.68423 22018 ft 228 kts 327°
2026-04-20 19:18 41.18023 -122.69078 22023 ft 233 kts 327°
2026-04-20 19:18 41.19568 -122.69733 22008 ft 231 kts 326°
2026-04-20 19:18 41.21083 -122.70386 22014 ft 230 kts 326°
2026-04-20 19:18 41.22586 -122.71010 22027 ft 222 kts 326°
2026-04-20 19:19 41.24048 -122.71651 22019 ft 228 kts 326°
2026-04-20 19:19 41.25568 -122.72311 22011 ft 230 kts 327°
2026-04-20 19:19 41.27084 -122.72955 22012 ft 228 kts 326°
2026-04-20 19:19 41.28590 -122.73605 22004 ft 227 kts 326°
2026-04-20 19:20 41.30094 -122.74248 22003 ft 227 kts 326°
2026-04-20 19:20 41.31595 -122.74888 21983 ft 226 kts 327°
2026-04-20 19:20 41.33098 -122.75522 21984 ft 226 kts 326°
2026-04-20 19:20 41.34593 -122.76174 21984 ft 225 kts 326°
2026-04-20 19:21 41.36079 -122.76824 21982 ft 225 kts 323°
2026-04-20 19:21 41.37561 -122.77461 21978 ft 222 kts 325°
2026-04-20 19:21 41.39035 -122.78106 21986 ft 224 kts 326°
2026-04-20 19:21 41.40523 -122.78728 21979 ft 223 kts 326°
2026-04-20 19:22 41.42010 -122.79369 21985 ft 227 kts 328°
2026-04-20 19:22 41.43518 -122.80015 21987 ft 229 kts 328°
2026-04-20 19:22 41.45056 -122.80622 21971 ft 236 kts 338°
2026-04-20 19:22 41.46696 -122.80809 21950 ft 238 kts 348°
2026-04-20 19:23 41.48345 -122.80963 21950 ft 237 kts 346°
2026-04-20 19:23 41.49985 -122.81158 21949 ft 236 kts 346°
2026-04-20 19:23 41.51625 -122.81327 21958 ft 237 kts 346°
2026-04-20 19:23 41.53268 -122.81497 21952 ft 237 kts 346°
2026-04-20 19:24 41.54908 -122.81664 21946 ft 236 kts 347°
2026-04-20 19:24 41.56549 -122.81826 21947 ft 236 kts 347°
2026-04-20 19:24 41.58189 -122.81992 21947 ft 236 kts 347°
2026-04-20 19:24 41.59831 -122.82159 21963 ft 237 kts 348°
2026-04-20 19:25 41.61495 -122.82329 21927 ft 239 kts 348°
2026-04-20 19:25 41.63151 -122.82498 21934 ft 238 kts 348°
2026-04-20 19:25 41.64805 -122.82669 21936 ft 239 kts 348°
2026-04-20 19:25 41.66465 -122.82842 21935 ft 240 kts 348°
2026-04-20 19:26 41.68108 -122.83009 21925 ft 240 kts 348°
2026-04-20 19:26 41.69775 -122.83178 21922 ft 239 kts 348°
2026-04-20 19:26 41.71431 -122.83359 21936 ft 239 kts 347°
2026-04-20 19:26 41.73100 -122.83532 21922 ft 241 kts 348°
2026-04-20 19:27 41.74773 -122.83687 21923 ft 240 kts 348°
2026-04-20 19:27 41.76425 -122.83854 21921 ft 234 kts 347°
2026-04-20 19:27 41.78047 -122.84033 21914 ft 234 kts 350°
2026-04-20 19:27 41.79680 -122.84156 21872 ft 235 kts 349°
2026-04-20 19:28 41.81259 -122.84346 21919 ft 224 kts 345°
2026-04-20 19:28 41.82815 -122.84560 21928 ft 227 kts 349°
2026-04-20 19:28 41.84415 -122.84691 21912 ft 232 kts 350°
2026-04-20 19:28 41.86049 -122.84847 21917 ft 233 kts 348°
2026-04-20 19:29 41.87640 -122.85018 21907 ft 234 kts 349°
2026-04-20 19:29 41.89273 -122.85188 21904 ft 235 kts 349°
2026-04-20 19:29 41.90872 -122.85341 21892 ft 229 kts 349°
2026-04-20 19:29 41.92477 -122.85514 21910 ft 232 kts 348°
2026-04-20 19:30 41.94100 -122.85682 21900 ft 235 kts 348°
2026-04-20 19:30 41.95715 -122.85841 21910 ft 231 kts 348°
2026-04-20 19:30 41.97330 -122.86020 21907 ft 234 kts 348°
2026-04-20 19:30 41.98938 -122.86203 21908 ft 236 kts 347°
2026-04-20 19:31 42.00589 -122.86369 21902 ft 240 kts 349°
2026-04-20 19:31 42.02260 -122.86513 21892 ft 239 kts 349°
2026-04-20 19:31 42.03931 -122.86688 21885 ft 240 kts 347°
2026-04-20 19:31 42.05590 -122.86877 21887 ft 238 kts 349°
2026-04-20 19:32 42.07242 -122.87023 21881 ft 237 kts 349°
2026-04-20 19:32 42.08868 -122.87195 21898 ft 234 kts 347°
2026-04-20 19:32 42.10502 -122.87395 21902 ft 237 kts 348°
2026-04-20 19:32 42.12157 -122.87558 21900 ft 239 kts 349°
2026-04-20 19:33 42.13793 -122.87723 21899 ft 238 kts 348°
2026-04-20 19:33 42.15440 -122.87896 21882 ft 236 kts 350°
2026-04-20 19:33 42.17089 -122.88061 21879 ft 238 kts 350°
2026-04-20 19:33 42.18741 -122.88239 21895 ft 237 kts 350°
2026-04-20 19:34 42.20382 -122.88418 21902 ft 233 kts 351°
2026-04-20 19:34 42.21998 -122.88557 21907 ft 234 kts 351°
2026-04-20 19:34 42.23608 -122.88714 21905 ft 228 kts 349°
2026-04-20 19:34 42.25187 -122.88919 21891 ft 224 kts 349°
2026-04-20 19:35 42.26732 -122.89083 21936 ft 229 kts 352°
2026-04-20 19:35 42.28336 -122.89235 21911 ft 232 kts 350°
2026-04-20 19:35 42.29948 -122.89408 21910 ft 232 kts 350°
2026-04-20 19:35 42.31558 -122.89582 21909 ft 233 kts 350°
2026-04-20 19:36 42.33177 -122.89749 21908 ft 233 kts 351°
2026-04-20 19:36 42.34799 -122.89914 21907 ft 233 kts 350°
2026-04-20 19:36 42.36422 -122.90082 21907 ft 233 kts 350°
2026-04-20 19:36 42.38041 -122.90251 21907 ft 233 kts 350°
2026-04-20 19:37 42.39671 -122.90430 21915 ft 236 kts 352°
2026-04-20 19:37 42.41289 -122.90593 21915 ft 236 kts 353°
2026-04-20 19:37 42.42929 -122.90758 21914 ft 236 kts 352°
2026-04-20 19:37 42.44569 -122.90932 21916 ft 236 kts 352°
2026-04-20 19:38 42.46209 -122.91108 21915 ft 236 kts 351°
2026-04-20 19:38 42.47775 -122.91647 21906 ft 228 kts 325°
2026-04-20 19:38 42.49064 -122.92755 21899 ft 212 kts 303°
2026-04-20 19:38 42.49772 -122.93679 21900 ft 208 kts 299°
2026-04-20 19:39 42.50812 -122.95054 21901 ft 209 kts 300°
2026-04-20 19:39 42.51866 -122.96424 21902 ft 210 kts 300°
2026-04-20 19:39 42.52914 -122.97800 21904 ft 210 kts 300°
2026-04-20 19:39 42.53969 -122.99184 21902 ft 211 kts 301°
2026-04-20 19:40 42.55022 -123.00568 21900 ft 211 kts 300°
2026-04-20 19:40 42.56070 -123.01957 21900 ft 213 kts 300°
2026-04-20 19:40 42.57118 -123.03345 21901 ft 214 kts 300°
2026-04-20 19:40 42.58203 -123.04775 21881 ft 214 kts 300°
2026-04-20 19:41 42.59272 -123.06175 21887 ft 214 kts 300°
2026-04-20 19:41 42.60332 -123.07561 21881 ft 213 kts 301°
2026-04-20 19:41 42.61387 -123.08955 21884 ft 212 kts 299°
2026-04-20 19:41 42.62445 -123.10353 21883 ft 212 kts 300°
2026-04-20 19:42 42.63498 -123.11742 21885 ft 211 kts 299°
2026-04-20 19:42 42.64545 -123.13141 21884 ft 210 kts 299°
2026-04-20 19:42 42.65595 -123.14531 21883 ft 212 kts 300°
2026-04-20 19:42 42.66659 -123.15928 21887 ft 213 kts 300°
2026-04-20 19:43 42.67362 -123.16860 21885 ft 214 kts 300°
2026-04-20 19:43 42.68783 -123.18743 21886 ft 213 kts 300°
2026-04-20 19:43 42.69847 -123.20156 21881 ft 214 kts 300°
2026-04-20 19:43 42.70917 -123.21575 21882 ft 216 kts 300°
2026-04-20 19:44 42.71969 -123.22959 21882 ft 211 kts 299°
2026-04-20 19:44 42.73017 -123.24351 21885 ft 211 kts 299°
2026-04-20 19:44 42.74062 -123.25746 21885 ft 210 kts 299°
2026-04-20 19:44 42.75116 -123.27148 21884 ft 212 kts 300°
2026-04-20 19:45 42.76173 -123.28549 21875 ft 212 kts 299°
2026-04-20 19:45 42.77223 -123.29950 21881 ft 211 kts 299°
2026-04-20 19:45 42.78278 -123.31355 21882 ft 213 kts 299°
2026-04-20 19:45 42.79343 -123.32768 21883 ft 215 kts 300°
2026-04-20 19:46 42.80415 -123.34182 21882 ft 214 kts 300°
2026-04-20 19:46 42.81471 -123.35602 21885 ft 214 kts 299°
2026-04-20 19:46 42.82537 -123.37033 21886 ft 216 kts 300°
2026-04-20 19:46 42.83604 -123.38440 21890 ft 213 kts 299°
2026-04-20 19:47 42.84654 -123.39852 21880 ft 212 kts 298°
2026-04-20 19:47 42.85689 -123.41222 21900 ft 209 kts 299°
2026-04-20 19:47 42.86737 -123.42629 21892 ft 212 kts 298°
2026-04-20 19:47 42.87798 -123.44046 21898 ft 212 kts 299°
2026-04-20 19:48 42.88853 -123.45441 21889 ft 210 kts 298°
2026-04-20 19:48 42.89896 -123.46839 21898 ft 212 kts 300°
2026-04-20 19:48 42.90935 -123.48214 21892 ft 210 kts 298°
2026-04-20 19:48 42.91954 -123.49623 21889 ft 209 kts 298°
2026-04-20 19:49 42.92991 -123.51028 21889 ft 211 kts 299°
2026-04-20 19:49 42.94052 -123.52436 21891 ft 213 kts 299°
2026-04-20 19:49 42.95110 -123.53842 21894 ft 213 kts 299°
2026-04-20 19:49 42.96170 -123.55259 21894 ft 214 kts 299°
2026-04-20 19:50 42.97231 -123.56677 21893 ft 213 kts 298°
2026-04-20 19:50 42.98286 -123.58100 21894 ft 213 kts 298°
2026-04-20 19:50 42.99343 -123.59525 21892 ft 213 kts 298°
2026-04-20 19:50 43.00393 -123.60939 21912 ft 213 kts 300°
2026-04-20 19:51 43.01458 -123.62364 21899 ft 213 kts 299°
2026-04-20 19:51 43.02518 -123.63795 21897 ft 215 kts 299°
2026-04-20 19:51 43.03581 -123.65228 21894 ft 214 kts 299°
2026-04-20 19:51 43.04632 -123.66643 21896 ft 215 kts 299°
2026-04-20 19:52 43.05699 -123.68081 21898 ft 216 kts 300°
2026-04-20 19:52 43.06769 -123.69522 21898 ft 216 kts 299°
2026-04-20 19:52 43.07837 -123.70965 21899 ft 216 kts 299°
2026-04-20 19:52 43.08906 -123.72410 21898 ft 215 kts 300°
2026-04-20 19:53 43.09973 -123.73853 21902 ft 216 kts 299°
2026-04-20 19:53 43.11044 -123.75295 21894 ft 215 kts 299°
2026-04-20 19:53 43.12101 -123.76726 21890 ft 213 kts 298°
2026-04-20 19:53 43.13145 -123.78149 21886 ft 213 kts 299°
2026-04-20 19:54 43.14172 -123.79530 21886 ft 206 kts 297°
2026-04-20 19:54 43.15160 -123.80918 21910 ft 208 kts 298°
2026-04-20 19:54 43.16218 -123.82325 21907 ft 215 kts 301°
2026-04-20 19:54 43.17308 -123.83744 21903 ft 216 kts 300°
2026-04-20 19:55 43.18378 -123.85197 21895 ft 217 kts 299°
2026-04-20 19:55 43.19438 -123.86667 21893 ft 216 kts 299°
2026-04-20 19:55 43.20503 -123.88121 21902 ft 216 kts 300°
2026-04-20 19:55 43.21572 -123.89574 21907 ft 217 kts 300°
2026-04-20 19:56 43.22648 -123.91019 21903 ft 215 kts 300°
2026-04-20 19:56 43.23705 -123.92455 21910 ft 214 kts 299°
2026-04-20 19:56 43.24759 -123.93901 21912 ft 214 kts 299°
2026-04-20 19:56 43.25805 -123.95329 21922 ft 215 kts 300°
2026-04-20 19:57 43.26868 -123.96770 21926 ft 215 kts 300°
2026-04-20 19:57 43.27925 -123.98210 21926 ft 213 kts 298°
2026-04-20 19:57 43.28974 -123.99662 21923 ft 214 kts 298°
2026-04-20 19:57 43.30036 -124.01104 21936 ft 216 kts 301°
2026-04-20 19:58 43.31110 -124.02550 21940 ft 217 kts 301°
2026-04-20 19:58 43.32176 -124.04006 21941 ft 216 kts 301°
2026-04-20 19:58 43.33232 -124.05456 21938 ft 213 kts 299°
2026-04-20 19:58 43.34275 -124.06896 21941 ft 214 kts 300°
2026-04-20 19:59 43.35336 -124.08331 21952 ft 213 kts 300°
2026-04-20 19:59 43.36385 -124.09765 21957 ft 213 kts 298°
2026-04-20 19:59 43.37429 -124.11204 21963 ft 213 kts 300°
2026-04-20 19:59 43.38482 -124.12648 21971 ft 215 kts 301°
2026-04-20 20:00 43.39546 -124.14102 21964 ft 216 kts 299°
2026-04-20 20:00 43.40679 -124.15481 21970 ft 224 kts 316°
2026-04-20 20:00 43.42115 -124.16387 21966 ft 236 kts 339°
2026-04-20 20:00 43.43745 -124.16649 21977 ft 237 kts
2026-04-20 20:01 43.45402 -124.16490 21963 ft 240 kts
2026-04-20 20:01 43.47078 -124.16344 21969 ft 244 kts
2026-04-20 20:01 43.48776 -124.16191 21971 ft 245 kts
2026-04-20 20:01 43.50480 -124.16041 21958 ft 244 kts
2026-04-20 20:02 43.52167 -124.15897 21958 ft 242 kts
2026-04-20 20:02 43.53838 -124.15733 21953 ft 240 kts
2026-04-20 20:02 43.55488 -124.15586 21946 ft 240 kts
2026-04-20 20:02 43.57152 -124.15431 21944 ft 239 kts
2026-04-20 20:03 43.58813 -124.15277 21936 ft 239 kts
2026-04-20 20:03 43.60470 -124.15121 21894 ft 239 kts
2026-04-20 20:03 43.62132 -124.14987 21882 ft 239 kts
2026-04-20 20:03 43.63797 -124.14815 21886 ft 241 kts
2026-04-20 20:04 43.65475 -124.14657 21894 ft 243 kts
2026-04-20 20:04 43.67159 -124.14505 21900 ft 242 kts
2026-04-20 20:04 43.68816 -124.14355 21892 ft 238 kts
2026-04-20 20:04 43.70458 -124.14195 21897 ft 235 kts
2026-04-20 20:05 43.72078 -124.14064 21890 ft 231 kts
2026-04-20 20:05 43.73677 -124.13923 21875 ft 228 kts
2026-04-20 20:05 43.75261 -124.13757 21883 ft 229 kts
2026-04-20 20:05 43.76852 -124.13603 21884 ft 230 kts
2026-04-20 20:06 43.78449 -124.13465 21896 ft 230 kts
2026-04-20 20:06 43.80046 -124.13315 21894 ft 230 kts
2026-04-20 20:06 43.81652 -124.13166 21893 ft 231 kts
2026-04-20 20:06 43.83256 -124.13019 21893 ft 231 kts
2026-04-20 20:07 43.84860 -124.12871 21896 ft 231 kts
2026-04-20 20:07 43.86465 -124.12722 21900 ft 231 kts
2026-04-20 20:07 43.88068 -124.12573 21895 ft 231 kts
2026-04-20 20:07 43.89668 -124.12426 21897 ft 231 kts
2026-04-20 20:08 43.91276 -124.12280 21913 ft 230 kts
2026-04-20 20:08 43.92871 -124.12130 21907 ft 229 kts
2026-04-20 20:08 43.94468 -124.11978 21905 ft 231 kts
2026-04-20 20:08 43.96072 -124.11828 21904 ft 231 kts
2026-04-20 20:09 43.97657 -124.11684 21905 ft 230 kts
2026-04-20 20:09 43.99253 -124.11535 21903 ft 229 kts
2026-04-20 20:09 44.00839 -124.11389 21901 ft 228 kts
2026-04-20 20:09 44.02424 -124.11242 21899 ft 228 kts
2026-04-20 20:10 44.04002 -124.11095 21864 ft 225 kts
2026-04-20 20:10 44.05554 -124.10953 21899 ft 223 kts 10°
2026-04-20 20:10 44.07105 -124.10808 21896 ft 224 kts 10°
2026-04-20 20:10 44.08661 -124.10663 21900 ft 223 kts 10°
2026-04-20 20:11 44.10216 -124.10518 21896 ft 224 kts 10°
2026-04-20 20:11 44.11774 -124.10377 21892 ft 224 kts 10°
2026-04-20 20:11 44.13306 -124.10228 21899 ft 223 kts 10°
2026-04-20 20:11 44.14854 -124.10077 21921 ft 222 kts 10°
2026-04-20 20:12 44.16399 -124.09934 21917 ft 222 kts
2026-04-20 20:12 44.17950 -124.09791 21919 ft 223 kts 10°
2026-04-20 20:12 44.19480 -124.09645 21917 ft 223 kts
2026-04-20 20:13 44.22554 -124.09360 21913 ft 220 kts
2026-04-20 20:13 44.24090 -124.09220 21912 ft 221 kts 10°
2026-04-20 20:13 44.25630 -124.09084 21903 ft 222 kts
2026-04-20 20:13 44.27173 -124.08929 21910 ft 223 kts 10°
2026-04-20 20:14 44.28713 -124.08776 21913 ft 221 kts 10°
2026-04-20 20:14 44.30253 -124.08710 21915 ft 220 kts
2026-04-20 20:14 44.31779 -124.08685 21921 ft 219 kts
2026-04-20 20:14 44.33316 -124.08638 21926 ft 221 kts
2026-04-20 20:15 44.34841 -124.08594 21902 ft 222 kts
2026-04-20 20:15 44.36379 -124.08560 21923 ft 221 kts
2026-04-20 20:15 44.37913 -124.08525 21931 ft 220 kts
2026-04-20 20:15 44.39438 -124.08489 21933 ft 219 kts
2026-04-20 20:16 44.40954 -124.08455 21931 ft 218 kts
2026-04-20 20:16 44.42468 -124.08421 21933 ft 217 kts
2026-04-20 20:16 44.43978 -124.08385 21934 ft 217 kts
2026-04-20 20:16 44.45488 -124.08349 21935 ft 216 kts
2026-04-20 20:17 44.46994 -124.08313 21943 ft 216 kts
2026-04-20 20:17 44.48498 -124.08278 21939 ft 216 kts
2026-04-20 20:17 44.49998 -124.08243 21938 ft 215 kts
2026-04-20 20:17 44.51494 -124.08207 21938 ft 215 kts
2026-04-20 20:18 44.52990 -124.08172 21936 ft 215 kts
2026-04-20 20:18 44.54466 -124.08137 21935 ft 215 kts
2026-04-20 20:18 44.55957 -124.08102 21937 ft 214 kts
2026-04-20 20:18 44.57449 -124.08066 21934 ft 214 kts
2026-04-20 20:19 44.58939 -124.08031 21936 ft 214 kts
2026-04-20 20:19 44.60423 -124.07994 21953 ft 213 kts
2026-04-20 20:19 44.61902 -124.07957 21949 ft 212 kts
2026-04-20 20:19 44.63371 -124.07921 21952 ft 211 kts
2026-04-20 20:20 44.64845 -124.07887 21953 ft 211 kts
2026-04-20 20:20 44.66311 -124.07852 21950 ft 211 kts
2026-04-20 20:20 44.67781 -124.07817 21919 ft 211 kts
2026-04-20 20:20 44.69244 -124.07782 21936 ft 211 kts
2026-04-20 20:21 44.70716 -124.07745 21934 ft 212 kts
2026-04-20 20:21 44.72187 -124.07708 21933 ft 212 kts
2026-04-20 20:21 44.73669 -124.07671 21931 ft 213 kts
2026-04-20 20:21 44.75127 -124.07636 21931 ft 212 kts
2026-04-20 20:22 44.76122 -124.07614 21932 ft 211 kts
2026-04-20 20:22 44.78063 -124.07569 21925 ft 210 kts
2026-04-20 20:22 44.79522 -124.07536 21926 ft 209 kts
2026-04-20 20:22 44.80978 -124.07498 21922 ft 209 kts
2026-04-20 20:23 44.82428 -124.07463 21917 ft 208 kts
2026-04-20 20:23 44.83876 -124.07429 21920 ft 208 kts
2026-04-20 20:23 44.85318 -124.07393 21917 ft 207 kts
2026-04-20 20:23 44.86757 -124.07359 21913 ft 207 kts
2026-04-20 20:24 44.88197 -124.07325 21906 ft 206 kts
2026-04-20 20:24 44.89631 -124.07291 21903 ft 206 kts
2026-04-20 20:24 44.91067 -124.07255 21904 ft 207 kts
2026-04-20 20:24 44.92027 -124.07230 21906 ft 209 kts
2026-04-20 20:25 44.93488 -124.07191 21906 ft 211 kts
2026-04-20 20:25 44.95447 -124.07141 21908 ft 212 kts
2026-04-20 20:25 44.96426 -124.07119 21908 ft 212 kts
2026-04-20 20:25 44.98389 -124.07076 21902 ft 209 kts
2026-04-20 20:26 44.99351 -124.07054 21903 ft 208 kts
2026-04-20 20:26 45.00795 -124.07021 21898 ft 206 kts
2026-04-20 20:26 45.02219 -124.06992 21889 ft 203 kts
2026-04-20 20:26 45.03627 -124.06954 21888 ft 202 kts
2026-04-20 20:27 45.05033 -124.06918 21885 ft 202 kts
2026-04-20 20:27 45.06438 -124.06883 21899 ft 201 kts
2026-04-20 20:27 45.07833 -124.06849 21898 ft 201 kts
2026-04-20 20:27 45.09229 -124.06816 21896 ft 200 kts
2026-04-20 20:28 45.10620 -124.06783 21896 ft 200 kts
2026-04-20 20:28 45.12008 -124.06750 21896 ft 199 kts
2026-04-20 20:28 45.13374 -124.06717 21896 ft 199 kts
2026-04-20 20:28 45.14760 -124.06684 21894 ft 198 kts
2026-04-20 20:29 45.16143 -124.06650 21895 ft 198 kts
2026-04-20 20:29 45.17523 -124.06617 21897 ft 198 kts
2026-04-20 20:29 45.18904 -124.06583 21897 ft 198 kts
2026-04-20 20:29 45.20278 -124.06550 21897 ft 197 kts
2026-04-20 20:30 45.21650 -124.06517 21899 ft 197 kts
2026-04-20 20:30 45.23020 -124.06483 21900 ft 197 kts
2026-04-20 20:30 45.24389 -124.06448 21901 ft 197 kts
2026-04-20 20:30 45.25759 -124.06415 21903 ft 197 kts
2026-04-20 20:31 45.27123 -124.06382 21905 ft 196 kts
2026-04-20 20:31 45.28487 -124.06349 21904 ft 196 kts
2026-04-20 20:31 45.29825 -124.06317 21918 ft 194 kts
2026-04-20 20:31 45.31186 -124.06280 21920 ft 192 kts
2026-04-20 20:32 45.32503 -124.06249 21917 ft 191 kts
2026-04-20 20:32 45.33830 -124.06218 21916 ft 190 kts
2026-04-20 20:32 45.35148 -124.06186 21896 ft 188 kts
2026-04-20 20:32 45.36447 -124.06156 21910 ft 186 kts
2026-04-20 20:33 45.37740 -124.06124 21908 ft 186 kts
2026-04-20 20:33 45.39030 -124.06092 21909 ft 185 kts
2026-04-20 20:33 45.40316 -124.06060 21909 ft 185 kts
2026-04-20 20:33 45.41598 -124.06029 21909 ft 184 kts
2026-04-20 20:34 45.42877 -124.05997 21908 ft 184 kts
2026-04-20 20:34 45.44156 -124.05966 21910 ft 183 kts
2026-04-20 20:34 45.45432 -124.05935 21912 ft 183 kts
2026-04-20 20:34 45.46693 -124.05903 21910 ft 183 kts
2026-04-20 20:35 45.47966 -124.05871 21909 ft 183 kts
2026-04-20 20:35 45.49240 -124.05840 21908 ft 183 kts
2026-04-20 20:35 45.50513 -124.05809 21910 ft 183 kts
2026-04-20 20:35 45.51788 -124.05777 21908 ft 183 kts
2026-04-20 20:36 45.53059 -124.05745 21919 ft 182 kts
2026-04-20 20:36 45.54324 -124.05710 21923 ft 182 kts
2026-04-20 20:36 45.55587 -124.05679 21922 ft 181 kts
2026-04-20 20:36 45.56849 -124.05649 21921 ft 181 kts
2026-04-20 20:37 45.58108 -124.05619 21920 ft 181 kts
2026-04-20 20:37 45.59369 -124.05588 21919 ft 181 kts
2026-04-20 20:37 45.60626 -124.05558 21916 ft 181 kts
2026-04-20 20:37 45.61885 -124.05527 21915 ft 181 kts
2026-04-20 20:38 45.63138 -124.05496 21914 ft 180 kts
2026-04-20 20:38 45.64394 -124.05465 21912 ft 180 kts
2026-04-20 20:38 45.65630 -124.05434 21911 ft 180 kts
2026-04-20 20:38 45.66880 -124.05404 21909 ft 179 kts
2026-04-20 20:39 45.68126 -124.05374 21905 ft 179 kts
2026-04-20 20:39 45.69375 -124.05342 21892 ft 178 kts
2026-04-20 20:39 45.70613 -124.05295 21887 ft 177 kts 15°
2026-04-20 20:39 45.71572 -124.04448 21694 ft 157 kts 79°
2026-04-20 20:40 45.71767 -124.02999 21498 ft 147 kts 106°
2026-04-20 20:40 45.71488 -124.01665 21294 ft 138 kts 131°
2026-04-20 20:40 45.70811 -124.00742 21081 ft 135 kts 155°
2026-04-20 20:40 45.69890 -124.00417 20754 ft 143 kts 178°
2026-04-20 20:41 45.68875 -124.00533 20403 ft 149 kts 180°
2026-04-20 20:41 45.67848 -124.00624 20053 ft 151 kts 179°
2026-04-20 20:41 45.66778 -124.00697 19694 ft 153 kts 178°
2026-04-20 20:41 45.65714 -124.00764 19332 ft 154 kts 178°
2026-04-20 20:42 45.64658 -124.00830 19024 ft 154 kts 177°
2026-04-20 20:42 45.63587 -124.00891 18676 ft 154 kts 177°
2026-04-20 20:42 45.62515 -124.00955 18329 ft 155 kts 178°
2026-04-20 20:42 45.61436 -124.01022 17946 ft 155 kts 177°
2026-04-20 20:43 45.60356 -124.01090 17550 ft 155 kts 177°
2026-04-20 20:43 45.59274 -124.01158 17160 ft 156 kts 177°
2026-04-20 20:43 45.58189 -124.01225 16774 ft 156 kts 177°
2026-04-20 20:43 45.57103 -124.01293 16393 ft 156 kts 177°
2026-04-20 20:44 45.56013 -124.01361 16013 ft 156 kts 176°
2026-04-20 20:44 45.54926 -124.01429 15645 ft 156 kts 176°
2026-04-20 20:44 45.53840 -124.01497 15264 ft 155 kts 177°
2026-04-20 20:44 45.52782 -124.01563 14906 ft 154 kts 177°
2026-04-20 20:45 45.51717 -124.01628 14544 ft 153 kts 176°
2026-04-20 20:45 45.50654 -124.01693 14189 ft 153 kts 176°
2026-04-20 20:45 45.49593 -124.01758 13837 ft 153 kts 176°
2026-04-20 20:45 45.48529 -124.01824 13453 ft 153 kts 176°
2026-04-20 20:46 45.47452 -124.01890 13055 ft 154 kts 176°
2026-04-20 20:46 45.46380 -124.01957 12670 ft 155 kts 176°
2026-04-20 20:46 45.45301 -124.02024 12288 ft 156 kts 176°
2026-04-20 20:46 45.44216 -124.02091 11902 ft 157 kts 176°
2026-04-20 20:47 45.43126 -124.02159 11532 ft 158 kts 176°
2026-04-20 20:47 45.42016 -124.02228 11157 ft 159 kts 176°
2026-04-20 20:47 45.40906 -124.02297 10789 ft 161 kts 176°
2026-04-20 20:47 45.39778 -124.02367 10424 ft 162 kts 176°
2026-04-20 20:48 45.38664 -124.02436 10072 ft 163 kts 176°
2026-04-20 20:48 45.37517 -124.02507 9701 ft 164 kts 176°
2026-04-20 20:48 45.36367 -124.02578 9304 ft 165 kts 176°
2026-04-20 20:48 45.35211 -124.02649 8914 ft 168 kts 177°
2026-04-20 20:49 45.34042 -124.02721 8534 ft 173 kts 177°
2026-04-20 20:49 45.32829 -124.02798 8153 ft 175 kts 178°
2026-04-20 20:49 45.31598 -124.02875 7796 ft 177 kts 176°
2026-04-20 20:49 45.30377 -124.02942 7420 ft 177 kts 177°
2026-04-20 20:50 45.29144 -124.03021 7047 ft 175 kts 177°
2026-04-20 20:50 45.27939 -124.03092 6687 ft 175 kts 178°
2026-04-20 20:50 45.26719 -124.03167 6319 ft 175 kts 178°
2026-04-20 20:50 45.25499 -124.03243 5930 ft 175 kts 178°
2026-04-20 20:51 45.24285 -124.03321 5547 ft 174 kts 179°
2026-04-20 20:51 45.23083 -124.03397 5172 ft 173 kts 179°
2026-04-20 20:51 45.21879 -124.03472 4921 ft 168 kts 179°
2026-04-20 20:51 45.20767 -124.03537 4917 ft 157 kts 179°
2026-04-20 20:52 45.19702 -124.03601 4913 ft 152 kts 179°
2026-04-20 20:52 45.18639 -124.03665 4910 ft 150 kts 179°
2026-04-20 20:52 45.17604 -124.03727 4907 ft 150 kts 179°
2026-04-20 20:52 45.16571 -124.03791 4905 ft 149 kts 179°
2026-04-20 20:53 45.15539 -124.03854 4899 ft 149 kts 179°
2026-04-20 20:53 45.14497 -124.03918 4903 ft 148 kts 179°
2026-04-20 20:53 45.13474 -124.03980 4896 ft 148 kts 179°
2026-04-20 20:53 45.12443 -124.04044 4893 ft 148 kts 179°
2026-04-20 20:54 45.11421 -124.04107 4895 ft 148 kts 179°
2026-04-20 20:54 45.10388 -124.04171 4889 ft 147 kts 179°
2026-04-20 20:54 45.09363 -124.04233 4888 ft 147 kts 179°
2026-04-20 20:54 45.08341 -124.04295 4888 ft 147 kts 179°
2026-04-20 20:55 45.07313 -124.04358 4889 ft 147 kts 179°
2026-04-20 20:55 45.06303 -124.04419 4887 ft 148 kts 180°
2026-04-20 20:55 45.05255 -124.04486 4885 ft 150 kts 180°
2026-04-20 20:55 45.04220 -124.04551 4886 ft 150 kts 180°
2026-04-20 20:56 45.03176 -124.04616 4888 ft 150 kts 179°
2026-04-20 20:56 45.02126 -124.04680 4889 ft 150 kts 180°
2026-04-20 20:56 45.01095 -124.04741 4889 ft 150 kts 180°
2026-04-20 20:56 45.00043 -124.04805 4888 ft 149 kts 179°
2026-04-20 20:57 44.99005 -124.04868 4905 ft 149 kts 179°
2026-04-20 20:57 44.97976 -124.04931 4905 ft 148 kts 179°
2026-04-20 20:57 44.96947 -124.04994 4906 ft 148 kts 179°
2026-04-20 20:57 44.95926 -124.05055 4905 ft 148 kts 179°
2026-04-20 20:58 44.94900 -124.05118 4904 ft 148 kts 179°
2026-04-20 20:58 44.93876 -124.05179 4904 ft 148 kts 179°
2026-04-20 20:58 44.92840 -124.05241 4907 ft 148 kts 179°
2026-04-20 20:58 44.91814 -124.05305 4910 ft 148 kts 179°
2026-04-20 20:59 44.90786 -124.05367 4912 ft 148 kts 179°
2026-04-20 20:59 44.89747 -124.05430 4915 ft 148 kts 179°
2026-04-20 20:59 44.88721 -124.05492 4918 ft 148 kts 179°
2026-04-20 20:59 44.87689 -124.05554 4919 ft 149 kts 179°
2026-04-20 21:00 44.86666 -124.05619 4921 ft 149 kts 179°
2026-04-20 21:00 44.85632 -124.05678 4925 ft 149 kts 179°
2026-04-20 21:00 44.84587 -124.05738 4927 ft 149 kts 179°
2026-04-20 21:00 44.83555 -124.05800 4930 ft 149 kts 179°
2026-04-20 21:01 44.82523 -124.05860 4930 ft 149 kts 180°
2026-04-20 21:01 44.81479 -124.05930 4932 ft 149 kts 180°
2026-04-20 21:01 44.80452 -124.05992 4942 ft 150 kts 180°
2026-04-20 21:01 44.79403 -124.06056 4940 ft 148 kts 180°
2026-04-20 21:02 44.78386 -124.06117 4941 ft 147 kts 180°
2026-04-20 21:02 44.77355 -124.06178 4955 ft 149 kts 180°
2026-04-20 21:02 44.76313 -124.06238 4912 ft 151 kts 180°
2026-04-20 21:02 44.75222 -124.06300 4674 ft 161 kts 181°
2026-04-20 21:03 44.74099 -124.06404 4415 ft 163 kts 182°
2026-04-20 21:03 44.72946 -124.06451 4168 ft 167 kts 180°
2026-04-20 21:03 44.71773 -124.06505 3922 ft 169 kts 182°
2026-04-20 21:03 44.70594 -124.06577 3673 ft 169 kts 182°
2026-04-20 21:04 44.69410 -124.06657 3428 ft 171 kts 183°
2026-04-20 21:04 44.68213 -124.06736 3190 ft 174 kts 183°
2026-04-20 21:04 44.66995 -124.06847 2985 ft 172 kts 182°
2026-04-20 21:04 44.65828 -124.06874 2983 ft 165 kts 181°
2026-04-20 21:05 44.64706 -124.06935 2983 ft 163 kts 183°
2026-04-20 21:05 44.63562 -124.07008 2982 ft 162 kts 183°
2026-04-20 21:05 44.62445 -124.07077 2940 ft 165 kts 182°
2026-04-20 21:05 44.61249 -124.07149 2681 ft 177 kts 181°
2026-04-20 21:06 44.59990 -124.07233 2427 ft 183 kts 187°
2026-04-20 21:06 44.58718 -124.07326 2152 ft 182 kts 181°
2026-04-20 21:06 44.57458 -124.07374 1895 ft 180 kts 182°
2026-04-20 21:06 44.56205 -124.07447 1639 ft 181 kts 183°
2026-04-20 21:07 44.54952 -124.07525 1477 ft 177 kts 182°
2026-04-20 21:07 44.53748 -124.07596 1478 ft 171 kts 183°
2026-04-20 21:07 44.52566 -124.07669 1478 ft 169 kts 183°
2026-04-20 21:07 44.51390 -124.07739 1478 ft 169 kts 183°
2026-04-20 21:08 44.50216 -124.07809 1478 ft 169 kts 183°
2026-04-20 21:08 44.49057 -124.07879 1477 ft 169 kts 183°
2026-04-20 21:08 44.47884 -124.07949 1474 ft 169 kts 183°
2026-04-20 21:08 44.46707 -124.08017 1468 ft 169 kts 182°
2026-04-20 21:09 44.45528 -124.07903 1353 ft 172 kts 171°
2026-04-20 21:09 44.44335 -124.07634 1135 ft 172 kts 174°
2026-04-20 21:09 44.43208 -124.07573 909 ft 150 kts 180°
2026-04-20 21:09 44.42230 -124.07644 792 ft 128 kts 187°
2026-04-20 21:10 44.41447 -124.07780 699 ft 105 kts 189°
2026-04-20 21:10 44.40770 -124.07967 610 ft 93 kts 194°
2026-04-20 21:10 44.40134 -124.08200 489 ft 98 kts 202°
2026-04-20 21:10 44.39580 -124.08444 331 ft 69 kts 197°
2026-04-20 21:11 44.39113 -124.08503 207 ft 67 kts 182°
2026-04-20 21:11 44.38671 -124.08513 80 ft 58 kts 186°
2026-04-20 21:11 44.38373 -124.08528 59 ft 22 kts 173°
2026-04-20 21:11 44.38329 -124.08533 60 ft 0 kts 112°
2026-04-20 21:12 44.38337 -124.08526 60 ft 8 kts 14°
2026-04-20 21:12 44.38437 -124.08520 60 ft 14 kts
2026-04-20 21:12 44.38492 -124.08520 62 ft 10 kts 358°
2026-04-20 21:12 44.38557 -124.08520 64 ft 11 kts
2026-04-20 21:13 44.38627 -124.08455 67 ft 5 kts 94°
2026-04-20 21:13 44.38630 -124.08451 68 ft 3 kts 355°
2026-04-20 21:13 44.38631 -124.08449 68 ft 4 kts 312°
2026-04-20 21:13 44.38629 -124.08446 68 ft 2 kts 309°
2026-04-20 21:14 44.38626 -124.08441 69 ft 0 kts 307°
2026-04-20 22:01 44.38626 -124.08440 63 ft 0 kts 304°
2026-04-20 22:27 44.38625 -124.08440 66 ft 0 kts 303°
2026-04-20 22:30 44.38625 -124.08439 66 ft 0 kts 303°
2026-04-20 22:49 44.38625 -124.08438 67 ft 0 kts 302°
2026-04-20 23:07 44.38625 -124.08437 64 ft 0 kts 300°
2026-04-20 23:08 44.38624 -124.08437 64 ft 0 kts 300°
2026-04-20 23:24 44.38624 -124.08436 56 ft 0 kts 299°
2026-04-20 23:40 44.38624 -124.08435 54 ft 0 kts 299°
2026-04-20 23:46 44.38623 -124.08435 54 ft 0 kts 298°
2026-04-20 23:55 44.38623 -124.08434 52 ft 0 kts 298°